This is the latest recevied weather packets stored in our database for station/object DP0GVN-13. If no packets are shown the sender has not sent any weather packets the latest 10 day(s).
| Time | Temp. | Humidity | Pressure | Rain* | Wind** | Luminosity | Snow |
|---|---|---|---|---|---|---|---|
| 1777870812 | -28.89° C | 71% | 992 hPa | - | - | 0 W/m² | - |
| 1777869012 | -28.89° C | 72% | 992.7 hPa | - | - | 0 W/m² | - |
| 1777867212 | -27.78° C | 70% | 992.8 hPa | - | - | 0 W/m² | - |
| 1777865412 | -25.56° C | 67% | 993.3 hPa | - | - | 0 W/m² | - |
| 1777863612 | -27.78° C | 70% | 993.7 hPa | - | - | 0 W/m² | - |
| 1777861812 | -27.78° C | 70% | 993.6 hPa | - | - | 0 W/m² | - |
| 1777860012 | -27.78° C | 70% | 993.6 hPa | - | - | 0 W/m² | - |
| 1777858212 | -27.78° C | 71% | 993.6 hPa | - | - | 0 W/m² | - |
| 1777856412 | -26.67° C | 72% | 993.9 hPa | - | - | 0 W/m² | - |
| 1777854612 | -26.67° C | 72% | 993.5 hPa | - | - | 0 W/m² | - |
| 1777852812 | -26.67° C | 73% | 993.6 hPa | - | - | 0 W/m² | - |
| 1777851012 | -26.67° C | 72% | 993.8 hPa | - | - | 0 W/m² | - |
| 1777849212 | -25° C | 79% | 993.4 hPa | - | - | 0 W/m² | - |
| 1777847412 | -23.89° C | 80% | 993.3 hPa | - | - | 0 W/m² | - |
| 1777845633 | -22.78° C | 80% | 993.2 hPa | - | - | 0 W/m² | - |
| 1777843812 | -22.78° C | 76% | 993 hPa | - | - | 0 W/m² | - |
| 1777842012 | -23.89° C | 75% | 992.8 hPa | - | - | 0 W/m² | - |
| 1777840212 | -23.89° C | 79% | 992.8 hPa | - | - | 0 W/m² | - |
| 1777838412 | -23.89° C | 78% | 993 hPa | - | - | 0 W/m² | - |
| 1777836612 | -22.78° C | 74% | 993 hPa | - | - | 0 W/m² | - |
| 1777834812 | -22.78° C | 76% | 993 hPa | - | - | 0 W/m² | - |
| 1777833012 | -22.78° C | 79% | 992.6 hPa | - | - | 0 W/m² | - |
| 1777831212 | -23.89° C | 79% | 992.3 hPa | - | - | 0 W/m² | - |
| 1777829412 | -23.89° C | 80% | 992 hPa | - | - | 0 W/m² | - |
| 1777827612 | -23.89° C | 79% | 991.9 hPa | - | - | 0 W/m² | - |
* Rain since midnight (hover to see other rain measurements)
** Current wind speed in m/s (hover to see current wind gust speed)